Meteo Giornale » Osservazioni meteo Francia » Biarritz
ore: 21:00 - Osservazioni Meteo Biarritz
Lat. 43° 28' N Lon. 1° 32' W Alt. 75 metri s.l.m.
22 °C
Sereno
Temp. 24 Ore
17 °C
25 °C
Nord-Ovest
14.8 Km/h
Dew point 17 °C
Umidità 73 %
Visibilità 10 Km
Il sole sorge alle ore 07:30
Il sole tramonta alle ore 20:42
| Data e Ora | Cielo e Fenomeni | T °C | DP °C | Um. % | Pres. hPa | Vis. km | Vento km/h | |
|---|---|---|---|---|---|---|---|---|
| Oggi h: 21:00 | Sereno | 22 | 17 | 73 | 1022 | 10 | NO 14.8 | |
| Oggi h: 20:30 | Sereno | 22 | 17 | 73 | 1021 | 10 | NO 13 | |
| Oggi h: 20:00 | Sereno | 23 | 17 | 68 | 1021 | 10 | N/NO 14.8 | |
| Oggi h: 19:30 | Sereno | 23 | 17 | 68 | 1020 | 10 | N/NO 13 | |
| Oggi h: 19:00 | Sereno | 23 | 17 | 68 | 1020 | 10 | N/NO 13 | |
| Oggi h: 18:30 | Sereno | 24 | 17 | 64 | 1020 | 10 | N/NO 16.7 | |
| Oggi h: 18:00 | Sereno | 23 | 17 | 68 | 1020 | 10 | N/NO 18.5 | |
| Oggi h: 17:30 | Sereno | 23 | 17 | 68 | 1020 | 10 | N/NO 18.5 | |
| Oggi h: 17:00 | Sereno | 24 | 16 | 60 | 1020 | 10 | N/NO 20.3 | |
| Oggi h: 16:30 | Sereno | 24 | 17 | 64 | 1020 | 10 | N/NO 20.3 | |
| Oggi h: 16:00 | Poco Nuvoloso | 24 | 17 | 64 | 1020 | 10 | N 22.2 | |
| Oggi h: 15:30 | Poco Nuvoloso | 24 | 17 | 64 | 1020 | 10 | N 24 | |
| Oggi h: 15:00 | Molto Nuvoloso | 24 | 17 | 64 | 1021 | 10 | N/NO 24 | |
| Oggi h: 14:30 | Coperto | 23 | 17 | 68 | 1021 | 10 | N/NO 20.3 | |
| Oggi h: 14:00 | Coperto | 25 | 16 | 57 | 1021 | 10 | N/NE 13 | |
| Oggi h: 13:30 | Molto Nuvoloso | 25 | 16 | 57 | 1021 | 10 | NE 16.7 | |
| Oggi h: 13:00 | Molto Nuvoloso | 24 | 16 | 60 | 1021 | 10 | NE 16.7 | |
| Oggi h: 12:30 | Coperto | 23 | 16 | 64 | 1021 | 10 | NE 13 | |
| Oggi h: 12:00 | Coperto | 22 | 16 | 68 | 1021 | 10 | NE 13 | |
| Oggi h: 11:30 | Molto Nuvoloso | 22 | 16 | 68 | 1021 | 10 | NE 14.8 | |
| Oggi h: 11:00 | Coperto | 21 | 16 | 73 | 1021 | 10 | E/NE 14.8 | |
| Oggi h: 10:30 | Coperto | 20 | 16 | 77 | 1021 | 10 | E/NE 14.8 | |
| Oggi h: 10:00 | Coperto | 19 | 16 | 82 | 1021 | 10 | E/NE 13 | |
| Oggi h: 09:30 | Coperto | 19 | 16 | 82 | 1021 | 10 | E/NE 16.7 | |
| Oggi h: 09:00 | Coperto | 19 | 16 | 82 | 1021 | 10 | E/NE 14.8 | |
| Oggi h: 08:30 | Coperto | 18 | 16 | 88 | 1021 | 10 | E/NE 9.3 | |
| Oggi h: 08:00 | Molto Nuvoloso | 17 | 16 | 93 | 1021 | 10 | E 7.4 | |
| Oggi h: 07:30 | Sereno | 17 | 16 | 93 | 1021 | 10 | E 7.4 | |
| Oggi h: 07:00 | Nuvoloso | 18 | 15 | 82 | 1021 | 10 | N 5.5 | |
| Oggi h: 06:30 | Poco Nuvoloso | 19 | 16 | 82 | 1021 | 10 | NE 7.4 | |
| Oggi h: 06:00 | Molto Nuvoloso | 19 | 16 | 82 | 1021 | 10 | N 5.5 | |
| Oggi h: 05:30 | Coperto | 19 | 16 | 82 | 1021 | 10 | NE 7.4 | |
| Oggi h: 05:00 | Coperto | 19 | 16 | 82 | 1022 | 10 | E/NE 7.4 | |
| Oggi h: 04:30 | Coperto | 19 | 16 | 82 | 1022 | 10 | E/NE 7.4 | |
| Oggi h: 04:00 | Coperto | 19 | 16 | 82 | 1022 | 10 | E 9.3 | |
| Oggi h: 03:30 | Coperto | 19 | 16 | 82 | 1022 | 10 | E 9.3 | |
| Oggi h: 03:00 | Coperto | 19 | 16 | 82 | 1023 | 10 | E/NE 7.4 | |
| Oggi h: 02:30 | Coperto | 20 | 17 | 82 | 1023 | 10 | N 5.5 | |
| Oggi h: 02:00 | Coperto | 20 | 17 | 82 | 1023 | 10 | N 5.5 | |
| Oggi h: 01:30 | Coperto | 20 | 17 | 82 | 1023 | 10 | N 3.7 | |
| Oggi h: 01:00 | Coperto | 20 | 17 | 82 | 1023 | 10 | N 5.5 | |
| Oggi h: 00:30 | Coperto | 20 | 17 | 82 | 1023 | 10 | N 5.5 | |
| Oggi h: 00:00 | Molto Nuvoloso | 20 | 16 | 77 | 1023 | 10 | N 3.7 | |
| Ieri h: 23:30 | Coperto | 21 | 16 | 73 | 1023 | 10 | N 3.7 | |
| Ieri h: 23:00 | Coperto | 21 | 16 | 73 | 1023 | 10 | N 0 | |
| Ieri h: 22:30 | Molto Nuvoloso | 21 | 16 | 73 | 1023 | 10 | N 5.5 | |
| Ieri h: 22:00 | Molto Nuvoloso | 21 | 16 | 73 | 1023 | 10 | N 7.4 | |



